User: anonymous   Login
Location: Lucerne Valley
(34.4439°N, 116.9669°E)
Time: 21:27:40
(UTC-08:00)
Language:

Envisat - Orbit

View from above orbital plane
View from above orbital plane
View from above satellite
View from above satellite

Ground track
Ground track

The orbit data is extracted from the following two-line orbital elements,

1 27386U 02009A   18051.80830405 -.00000007  00000-0  11182-4 0  9995
2 27386  98.1998  91.2637 0001301  84.6620 275.4699 14.37915668836808
Epoch (UTC): 20 February 2018 19:23:57
Eccentricity: 0.0001301
inclination: 98.1998°
perigee height: 764 km
apogee height: 766 km
right ascension of ascending node: 91.2637°
argument of perigee: 84.6620°
revolutions per day: 14.37915668
mean anomaly at epoch: 275.4699°
orbit number at epoch: 83680

The dashed part of the orbit path shows where the satellite is in the earth's shadow,  

DLR